This demonstration page uses our WeatherBlox Daily Observations layout. Learn more.

Left ArrowRight Arrow

39.12711, -84.51439

Hourly Observations for October 28, 2018

Temp ( °F °C ) Dew Point ( °F °C ) Humidity (%) Winds ( mph kmh ) Pressure ( in mb ) Visibility ( mi km ) Precip ( " mm )
12:53 am 00:53 Cloudy 49 9.4 43 6.1 80 80 W 7 11 29.93 1014 10 16 N/A
1:53 am 01:53 Cloudy 48 8.9 44 6.7 86 86 SW 5 7 29.94 1014 10 16 0.01 0.25
2:53 am 02:53 Cloudy 48 8.9 44 6.7 86 86 N N/A 29.94 1014 10 16 N/A
3:53 am 03:53 Mostly Cloudy 48 8.9 44 6.7 86 86 N N/A 29.93 1014 10 16 N/A
4:53 am 04:53 Clear 46 7.8 44 6.7 93 93 SSW 3 6 29.94 1014 10 16 N/A
5:53 am 05:53 Clear 43 6.1 43 6.1 100 100 S 3 6 29.95 1014 10 16 N/A
6:53 am 06:53 Clear 43 6.1 43 6.1 100 100 SSE 3 6 29.94 1014 7 11 N/A
7:53 am 07:53 Clear 43 6.1 42 5.6 97 97 N N/A 29.93 1014 7 11 N/A
8:53 am 08:53 Mostly Cloudy 44 6.7 43 6.1 96 96 N N/A 29.92 1013 7 11 N/A
9:53 am 09:53 Mostly Cloudy 47 8.3 44 6.7 90 90 SSW 10 17 29.89 1012 8 13 N/A
10:53 am 10:53 Cloudy with Light Rain 49 9.4 46 7.8 90 90 S 9 15 29.84 1011 10 16 N/A
11:53 am 11:53 Sunny 54 12.2 49 9.4 83 83 S 13 20 29.75 1008 10 16 N/A
12:53 pm 12:53 Cloudy 57 13.9 49 9.4 74 74 SSW 14 22 29.72 1006 10 16 N/A
1:53 pm 13:53 Cloudy 58 14.4 49 9.4 72 72 SW 16 26 29.69 1005 10 16 0.01 0.25
2:53 pm 14:53 Mostly Cloudy 62 16.7 52 11.1 70 70 SW 15 24 29.65 1004 10 16 N/A
3:53 pm 15:53 Partly Cloudy 63 17.2 49 9.4 60 60 WSW 18 30 29.64 1004 10 16 N/A
4:35 pm 16:35 Mostly Sunny 62 16.7 35 1.7 37 37 W 23 37 29.65 1004 10 16 N/A
4:53 pm 16:53 Partly Cloudy 64 17.8 35 1.7 34 34 W 24 39 29.66 1005 10 16 N/A
5:36 pm 17:36 Cloudy 61 16.1 34 1.1 36 36 W 25 41 29.71 1006 10 16 N/A
5:53 pm 17:53 Cloudy 61 16.1 36 2.2 39 39 W 28 44 29.72 1006 10 16 N/A
6:53 pm 18:53 Cloudy 56 13.3 41 5 57 57 NNW 22 35 29.79 1009 10 16 N/A
7:53 pm 19:53 Cloudy 54 12.2 41 5 62 62 WNW 12 19 29.84 1011 10 16 N/A
8:53 pm 20:53 Cloudy 54 12.2 41 5 62 62 W 13 20 29.85 1011 10 16 N/A
9:53 pm 21:53 Cloudy 53 11.7 41 5 64 64 W 12 19 29.87 1012 10 16 N/A
10:53 pm 22:53 Cloudy 53 11.7 41 5 64 64 W 20 31 29.89 1012 10 16 N/A
11:53 pm 23:53 Cloudy 52 11.1 42 5.6 69 69 WNW 15 24 29.92 1013 10 16 N/A

Powered by AerisWeather